| time (UTC) | temp F | wind direction | speed MPH | gust MPH | rain 1hr in | rain 24hr in | rain mn in | humidity % | barometer mb |
| 20260504023002 | 58 | 345 | 0.0 | 0.0 | 0.00 | 0.00 | 0.00 | 65 | 1006.7 |
| 20260504021502 | 61 | 238 | 0.0 | 0.0 | 0.00 | 0.00 | 0.00 | 60 | 1006.6 |
| 20260504014600 | 65 | 284 | 0.0 | 0.0 | 0.00 | 0.00 | 0.00 | 51 | 1006.4 |
| 20260504013111 | 66 | 244 | 0.0 | 0.0 | 0.00 | 0.00 | 0.00 | 48 | 1006.3 |
| 20260504011600 | 67 | 234 | 0.0 | 0.0 | 0.00 | 0.00 | 0.00 | 48 | 1006.2 |
| 20260504010114 | 69 | 268 | 0.0 | 0.0 | 0.00 | 0.00 | 0.00 | 45 | 1006.1 |
| 20260504004625 | 70 | 263 | 0.0 | 0.0 | 0.00 | 0.00 | 0.00 | 43 | 1005.9 |
| 20260504003058 | 70 | 331 | 0.0 | 1.0 | 0.00 | 0.00 | 0.00 | 42 | 1005.8 |
| 20260504001607 | 71 | 288 | 1.0 | 7.0 | 0.00 | 0.00 | 0.00 | 41 | 1005.8 |
| 20260504000057 | 72 | 303 | 3.0 | 11.0 | 0.00 | 0.00 | 0.00 | 39 | 1005.7 |
| 20260503234557 | 72 | 284 | 2.0 | 8.0 | 0.00 | 0.00 | 0.00 | 40 | 1005.5 |
| 20260503233058 | 72 | 259 | 2.0 | 8.0 | 0.00 | 0.00 | 0.00 | 40 | 1005.5 |
| 20260503231557 | 73 | 290 | 1.0 | 11.0 | 0.00 | 0.00 | 0.00 | 40 | 1005.6 |
| 20260503230059 | 73 | 245 | 2.0 | 12.0 | 0.00 | 0.00 | 0.00 | 43 | 1005.8 |
| 20260503224552 | 73 | 334 | 3.0 | 12.0 | 0.00 | 0.00 | 0.00 | 43 | 1005.9 |
| 20260503223057 | 73 | 289 | 1.0 | 8.0 | 0.00 | 0.00 | 0.00 | 43 | 1006.0 |
| 20260503221551 | 73 | 253 | 3.0 | 12.0 | 0.00 | 0.00 | 0.00 | 44 | 1006.0 |
| 20260503220047 | 72 | 267 | 2.0 | 13.0 | 0.00 | 0.00 | 0.00 | 45 | 1006.0 |
| 20260503214546 | 72 | 227 | 2.0 | 14.0 | 0.00 | 0.00 | 0.00 | 47 | 1006.0 |
| 20260503213100 | 72 | 309 | 3.0 | 12.0 | 0.00 | 0.00 | 0.00 | 47 | 1006.0 |
| 20260503211542 | 71 | 284 | 4.0 | 14.0 | 0.00 | 0.00 | 0.00 | 47 | 1006.2 |
| 20260503210048 | 71 | 246 | 2.0 | 14.0 | 0.00 | 0.00 | 0.00 | 47 | 1006.3 |
| 20260503204547 | 70 | 252 | 3.0 | 15.0 | 0.00 | 0.00 | 0.00 | 51 | 1006.4 |
| 20260503203034 | 69 | 225 | 2.0 | 22.0 | 0.00 | 0.00 | 0.00 | 51 | 1006.6 |
| 20260503201532 | 68 | 213 | 3.0 | 19.0 | 0.00 | 0.00 | 0.00 | 50 | 1006.8 |
| 20260503200029 | 69 | 221 | 3.0 | 13.0 | 0.00 | 0.00 | 0.00 | 54 | 1007.2 |
| 20260503194527 | 68 | 233 | 3.0 | 18.0 | 0.00 | 0.00 | 0.00 | 51 | 1007.6 |
| 20260503193033 | 67 | 235 | 3.0 | 19.0 | 0.00 | 0.00 | 0.00 | 52 | 1007.8 |
| 20260503191523 | 67 | 218 | 3.0 | 15.0 | 0.00 | 0.00 | 0.00 | 54 | 1007.9 |
| 20260503190024 | 67 | 212 | 2.0 | 18.0 | 0.00 | 0.00 | 0.00 | 51 | 1008.0 |
| 20260503184533 | 66 | 248 | 5.0 | 17.0 | 0.00 | 0.00 | 0.00 | 54 | 1008.2 |
| 20260503183017 | 66 | 235 | 3.0 | 17.0 | 0.00 | 0.00 | 0.00 | 52 | 1008.2 |
| 20260503181516 | 65 | 254 | 3.0 | 20.0 | 0.00 | 0.00 | 0.00 | 53 | 1008.2 |
| 20260503180022 | 65 | 218 | 3.0 | 17.0 | 0.00 | 0.00 | 0.00 | 55 | 1008.5 |
| 20260503174511 | 65 | 230 | 4.0 | 18.0 | 0.00 | 0.00 | 0.00 | 54 | 1008.6 |
| 20260503173014 | 64 | 230 | 4.0 | 20.0 | 0.00 | 0.00 | 0.00 | 57 | 1008.8 |
| 20260503171506 | 64 | 253 | 4.0 | 19.0 | 0.00 | 0.00 | 0.00 | 55 | 1009.0 |
| 20260503100106 | 51 | 240 | 1.0 | 8.0 | 0.00 | 0.00 | 0.00 | 57 | 1013.0 |
| 20260503081547 | 51 | 257 | 2.0 | 10.0 | 0.00 | 0.00 | 0.00 | 56 | 1014.0 |
| 20260503071542 | 50 | 250 | 3.0 | 12.0 | 0.00 | 0.00 | 0.00 | 56 | 1014.5 |
| 20260503054532 | 52 | 227 | 3.0 | 13.0 | 0.00 | 0.00 | 0.00 | 51 | 1015.1 |
| 20260503053029 | 52 | 213 | 2.0 | 11.0 | 0.00 | 0.00 | 0.00 | 49 | 1015.2 |
| 20260503051517 | 53 | 209 | 4.0 | 14.0 | 0.00 | 0.00 | 0.00 | 48 | 1015.4 |
| 20260503050015 | 53 | 226 | 2.0 | 15.0 | 0.00 | 0.00 | 0.00 | 48 | 1015.5 |
| 20260503044513 | 53 | 270 | 2.0 | 10.0 | 0.00 | 0.00 | 0.00 | 48 | 1015.6 |
| 20260503043112 | 53 | 239 | 3.0 | 10.0 | 0.00 | 0.00 | 0.00 | 49 | 1015.8 |
| 20260503041511 | 52 | 240 | 5.0 | 12.0 | 0.00 | 0.00 | 0.00 | 48 | 1016.0 |
| 20260503040008 | 52 | 227 | 0.0 | 7.0 | 0.00 | 0.00 | 0.00 | 49 | 1016.2 |
| 20260503034520 | 51 | 229 | 2.0 | 10.0 | 0.00 | 0.00 | 0.00 | 51 | 1016.4 |
| 20260503033007 | 51 | 227 | 3.0 | 9.0 | 0.00 | 0.00 | 0.00 | 51 | 1016.5 |
| 20260503031505 | 51 | 241 | 2.0 | 7.0 | 0.00 | 0.00 | 0.00 | 51 | 1016.7 |
| 20260503030004 | 51 | 223 | 2.0 | 6.0 | 0.00 | 0.00 | 0.00 | 52 | 1016.8 |
| 20260503024506 | 51 | 211 | 1.0 | 2.0 | 0.00 | 0.00 | 0.00 | 52 | 1016.8 |